Miscellaneous Local Product
Issued by NWS North Platte, NE

Home | Current Version | Previous Version | Text Only | Print | Product List | Glossary On
Versions: 1 2 3 4 5 6 7 8 9 10 11 12 13 14 15 16 17 18 19 20 21 22 23 24 25 26 27 28 29 30 31 32 33 34 35 36 37 38 39 40 41 42 43 44 45 46 47 48 49 50
000
AXUS43 KLBF 221410
MISLBF


WESTERN AND NORTH CENTRAL NEBRASKA HOURLY WEATHER ROUNDUP
NATIONAL WEATHER SERVICE NORTH PLATTE NE
900 AM CDT FRI AUG 22 2014

***STATIONS NOT REPORTING VARIABLES SUCH AS SKY/WEATHER OR
PRESSURE ARE PROVIDED BY THE NEBRASKA DEPARTMENT OF
ROADS...RAWS...AND APRS NETWORKS...AND ARE NOT UNDER
NATIONAL WEATHER SERVICE QUALITY CONTROL***

...OBSERVATIONS IN AND NEAR THE EASTERN PANHANDLE OF NEBRASKA...

CITY           SKY/WX    TMP DP  RH WIND       PRES   REMARKS
PINE RIDGE     CLOUDY    61  60  97 W7        30.08R
CHADRON        CLOUDY    63  56  78 W3        30.09R
ALLIANCE       CLOUDY    67  52  58 N6        30.10S
SIDNEY         CLOUDY    63  60  90 SW3       30.13S
WHITECLAY        N/A     62  58  87 NW7         N/A
RUSHVILLE        N/A     61  59  94 N12         N/A
GORDON           N/A     66  64  96 NW6         N/A
CRESCENT LAKE    N/A     66  55  68 CALM        N/A
LISCO            N/A     69  58  67 CALM        N/A
BIG SPRINGS      N/A     64  61  91 W5          N/A
$$

...OBSERVATIONS IN NORTH CENTRAL NEBRASKA...

CITY           SKY/WX    TMP DP  RH WIND       PRES   REMARKS
VALENTINE      CLOUDY    69  62  78 E3        30.01F
THEDFORD       CLOUDY    68  65  90 CALM      30.05R
AINSWORTH      CLOUDY    69  66  90 CALM      30.02S
O`NEILL        PTSUNNY   74  71  89 NE6       29.99R
ORD            MOSUNNY   74  69  85 VRB3      29.95S
BROKEN BOW     CLOUDY    75  69  81 N3        29.99R
BROWNLEE         N/A     72  67  82 CALM        N/A
SPRINGVIEW       N/A     66  63  91 CALM        N/A
ROSE             N/A     78  73  84 MISG        N/A
NEWPORT          N/A     76  70  83 W3          N/A
SARGENT          N/A     71  68  91 CALM        N/A
COMSTOCK         N/A     79  76  90 CALM        N/A
CHAMBERS         N/A     80  72  76 E3          N/A
EWING            N/A     75  71  89 NW3         N/A
$$

...OBSERVATIONS IN SOUTHWEST NEBRASKA AND FAR NORTHEAST COLORADO...

CITY           SKY/WX    TMP DP  RH WIND       PRES   REMARKS
WRAY             N/A     66  61  84 N12G17    30.07R
IMPERIAL       CLOUDY    68  59  73 N15       30.02F
OGALLALA       RAIN      64  59  83 NW15      30.06S
NORTH PLATTE   CLOUDY    70  65  84 NW6       30.03R
MCCOOK         PTSUNNY   76  69  79 N12       30.00S
LEXINGTON      MOSUNNY   72  71  95 NW9       29.99R FOG
PAXTON           N/A     68  64  86 CALM        N/A
SUTHERLAND       N/A     75  65  70 W8          N/A
BRADY            N/A     71  67  89 CALM        N/A
GOTHENBURG       N/A     71  64  80 CALM        N/A
CALLAWAY         N/A     64  64  99 NW6         N/A
$$

...SOME WEATHER OBSERVATIONS FROM AROUND THE REGION...

CITY           SKY/WX    TMP DP  RH WIND       PRES   REMARKS
DENVER         CLOUDY    64  56  75 SW3       30.18R
LARAMIE        LGT RAIN  55  46  71 S9        30.26R
CHEYENNE       CLOUDY    60  50  69 SW6       30.23R
SCOTTSBLUFF    CLOUDY    65  55  70 NW10      30.11S
RAPID CITY     CLOUDY    62  61  96 NW8       30.09R
PIERRE         PTSUNNY   69  66  90 NE13      29.99R
WINNER         FAIR      72  66  81 NE5       30.00F
SIOUX FALLS    MOSUNNY   74  69  85 NE6       29.96R
OMAHA          PTSUNNY   77  71  82 SE7       29.91R
GRAND ISLAND   SUNNY     74  68  81 NE6       29.95S
KANSAS CITY    CLOUDY    81  72  74 S3        29.97R
WICHITA        MOSUNNY   82  65  56 S14       29.93R
HAYS           CLOUDY    73  64  73 N18       29.91S THUNDER
LIBERAL        MOSUNNY   81  63  54 S17       30.00S
GOODLAND       SUNNY     73  56  54 N20G26    30.03F
$$



USA.gov is the U.S. government's official web portal to all federal, state and local government web resources and services.